Погода в Черной Речке

Россия / Хабаровский край     48°28′11″N   135°18′42″E
темп.,
°C
ветер,
м/с
пор.,
м/с
влажн.,
%
обл.,
%
осадки,
мм/ч
давл.,
гПа
погр.,
м
22 апреля, чт
чт2201:00+8ююв22450 0.0 102117
04:00+6вюв22480 0.0 102115
07:00+6ююв22500 0.0 102333
10:00+14ююв35320 0.0 1023376
13:00+21ю34225 0.0 10211023
16:00+23ююз461930 0.0 10191732
19:00+21ююз222925 0.0 101822
22:00+17ююз33367 0.0 101932
23 апреля, пт
пт2301:00+14ююз354173 0.0 101949
04:00+13ююз3548100 0.0 101962
07:00+12ююз3456100 0.0 101980
10:00+16юз3439100 0.0 1020459
13:00+19зюз5634100 0.0 10191046
16:00+20юз6737100 0.0 10181598
19:00+18ююз4847100 0.0 1016250
22:00+13з51071100 0.1 1018454
24 апреля, сб
сб2401:00+11сз61057100 0.5 1019626
04:00+5св5883100 0.7 1021466
07:00+3св4893100 0.1 1022545
10:00+3с1394100 0.3 1021304
13:00+6з347193 0.1 1020876
16:00+12з49260 0.1 10162347
19:00+11сз71127100 0.0 10161126
22:00+7ссз4103530 0.0 1016283
25 апреля, вс
вс2501:00+5зсз612371 0.0 1015445
04:00+4зсз713363 0.0 10121084
07:00+3с6115899 0.0 1014969
10:00+6ссв693031 0.0 10172245
13:00+7ссв4628100 0.0 10182630
16:00+9с142999 0.1 10171998
19:00+8в32315 0.0 1017779
22:00+4ююв37400 0.0 1018136
26 апреля, пн
пн2601:00+3ююз36460 0.0 101895
04:00+2зюз35465 0.0 101865
07:00+3юз254364 0.0 1018110
10:00+10зюз452511 0.0 1017839
13:00+13юз4522100 0.0 10161733
16:00+14юз4521100 0.0 10131890
19:00+13ююв3429100 0.0 101281
22:00+10юв4935100 0.0 1011184